Flag for Argentina Weather past 2 weeks in Comodoro Rivadavia, Chubut, Argentina

Now
52 °F

Clear.


Feels Like: 47 °F
Forecast: 47 / 58 °F
Wind: 16 mph from Northwest

Location: Comodoro Rivadavia Aerodrome

Current Time: May 30, 2015 at 3:39:58 AM

Latest Report: May 30, 2015 at 3:00 AM


Visibility: 10 mi

Pressure: 29.65 "Hg

Humidity: 47%

Dew point: 32 °F

Location of Comodoro RivadaviaLocation

Historic Weather in Comodoro Rivadavia — Graph

°F

Comodoro Rivadavia temperature yesterday

Maximum temperature yesterday: 61 °F (at 2:00 PM)
Minimum temperature yesterday: 50 °F (at 7:00 AM)
Average temperature yesterday: 55 °F

Past Weeks' High & Low Weather Summary

 TemperatureHumidityPressure
High73 °F (May 16, 10:00 AM)94% (May 26, 12:00 AM)30.15 "Hg (May 26, 12:00 AM)
Low37 °F (May 23, 8:00 AM)23% (May 22, 3:00 PM)28.94 "Hg (May 16, 9:00 AM)
Average56 °F50%29.68 "Hg
* Reported May 15 2:00 AM — May 30 2:00 AM, Comodoro Rivadavia, Weather by CustomWeather, © 2015

Note: Actual official high and low records may vary slightly from our data, if they occured in-between our weather recording intervals... More about our weather records

Advertising

Comodoro Rivadavia weather history for previous 24 hours

 ConditionsComfort  
Time TempWeatherWind HumidityBarometerVisibility
2:00 AM
Sat, May 30
52 °FClear.21 mph47%29.65 "Hg10 mi
1:00 AM52 °FClear.16 mph47%29.65 "Hg10 mi
12:00 AM52 °FClear.21 mph44%29.65 "Hg10 mi
11:00 PM
Fri, May 29
54 °FClear.15 mph44%29.62 "Hg10 mi
10:00 PM54 °FClear.16 mph44%29.62 "Hg10 mi
9:00 PM54 °FClear.22 mph44%29.62 "Hg10 mi
8:00 PM59 °FClear.25 mph34%29.56 "Hg10 mi
7:00 PM57 °FClear.21 mph39%29.56 "Hg10 mi
6:00 PM57 °FClear.18 mph39%29.53 "Hg10 mi
5:00 PM59 °FPassing clouds.20 mph39%29.53 "HgN/A
4:00 PM59 °FPassing clouds.18 mph39%29.53 "HgN/A
3:00 PM61 °FPassing clouds.25 mph34%29.50 "HgN/A
2:00 PM61 °FPassing clouds.30 mph31%29.50 "HgN/A
1:00 PM59 °FPassing clouds.22 mph34%29.53 "HgN/A
12:00 PM55 °FSunny.21 mph41%29.56 "Hg10 mi
11:00 AM55 °FSunny.14 mph44%29.56 "Hg10 mi
10:00 AM52 °FSunny.12 mph50%29.53 "Hg10 mi
9:00 AM52 °FSunny.8 mph47%29.53 "Hg10 mi
8:00 AM52 °FSunny.15 mph50%29.53 "Hg10 mi
7:00 AM50 °FClear.7 mph54%29.53 "Hg10 mi
6:00 AM54 °FClear.15 mph44%29.50 "Hg10 mi
5:00 AM52 °FClear.5 mph47%29.50 "Hg10 mi
4:00 AM52 °FClear.7 mph47%29.53 "Hg10 mi
3:00 AM54 °FClear.8 mph44%29.53 "Hg10 mi
Weather by CustomWeather, © 2015

See weather overviewHow to use our weather pages